Regional Weather Roundup
Issued by NWS

Home | Current Version | Previous Version | Text Only | Print | Product List | Glossary On
Versions: 1 2 3 4 5 6 7 8 9 10 11 12 13 14 15 16 17 18 19 20 21 22 23 24 25 26 27 28 29 30 31 32 33 34 35 36 37 38 39 40 41 42 43 44 45 46 47 48 49 50
000
ASCA44 KEWX 220120
RWRMX

LATIN AMERICA AND CARIBBEAN REGIONAL WEATHER ROUNDUP
NATIONAL WEATHER SERVICE AUSTIN/SAN ANTONIO TX
800 PM CDT SAT APR 21 2018

NOTE: "FAIR" INDICATED FEW OR NO CLOUDS BELOW 12,000 FEET WITH NO
SIGNIFICANT WEATHER AND/OR OBSTRUCTIONS TO VISIBILITY.

BAJA CALIFORNIA

CITY           SKY/WX    TMP DP  RH WIND       PRES   REMARKS
LORETO         PTSUNNY   72  57  60 CALM      29.90S
LA PAZ         MOCLDY    75  45  33 NW7       29.92R
MEXICALI       PTSUNNY   90  27  10 W3        29.89S
S.J. DEL CABO  CLOUDY    75  43  31 SE12      29.91
TIJUANA          N/A    N/A N/A N/A W7        30.01R

NORTHWESTERN MEXICO

CITY           SKY/WX    TMP DP  RH WIND       PRES   REMARKS
CULIACAN       CLOUDY    81  59  47 NW6       29.86R
DURANGO        MOCLDY    81  23  12 SW14      30.09R
GUAYMAS        CLOUDY    82  45  26 S8        29.82F
HERMOSILLO     PTSUNNY   90  32  12 W16       29.88S
CD. JUAREZ     MOCLDY    72  25  17 N7        30.06
LOS MOCHIS     PTCLDY    75  52  43 NW9       29.90S
OBREGON        MOCLDY    79  41  25 W7        29.86S

NORTHEASTERN MEXICO

CITY           SKY/WX    TMP DP  RH WIND       PRES   REMARKS
CHIHUAHUA      PTCLDY    77  18  10 N13       30.04R
MATAMOROS      MOCLDY    79  72  78 SE15      29.86R
MONTERREY      PTCLDY    81  61  50 SE5       29.88R
NUEVO LAREDO   PTCLDY    84  63  48 NE7       29.85R
PIEDRAS NEGRAS   N/A    N/A N/A N/A MISG        N/A
REYNOSA        PTCLDY    79  68  69 SE12      29.84R
SALTILLO       CLEAR     70  43  37 N14       30.08R
TORREON        MOCLDY    90  23   9 N10       29.92R
CD. VICTORIA   PTCLDY    86  64  48 MISG      29.81R

WESTERN MEXICO

CITY           SKY/WX    TMP DP  RH WIND       PRES   REMARKS
AGUASCALIENTES PTCLDY    86  16   7 W5        30.09R
COLIMA           N/A    N/A N/A N/A MISG        N/A
DEL BAJIO      PTCLDY    86  30  13 NW6       30.12S
GUADALAJARA    PTCLDY    86  30  13 NW8       30.04R
MANZANILLO     PTCLDY    81  73  78 W12       29.85R
MAZATLAN       MOCLDY    82  59  44 W7        29.84S
P. VALLARTA    MOCLDY    77  73  88 SW9       29.87R
URUAPAN          N/A    N/A N/A N/A MISG        N/A
ZACATECAS      MOCLDY    81  27  13 SW13      30.15R

CENTRAL MEXICO

CITY           SKY/WX    TMP DP  RH WIND       PRES   REMARKS
CUERNAVACA     CLOUDY    88  50  27 CALM      29.95R
MEXICO CITY    LGT RAIN  73  43  33 SE13      30.21R
MORELIA        MOCLDY    77  48  36 S7        30.10R
POZA RICA        N/A    N/A N/A N/A MISG        N/A
PUEBLA         LGT RAIN  64  50  59 E8        30.25R
QUERETARO      PTCLDY    79  43  27 W9        30.14R
TAMPICO        MOCLDY    77  73  88 MISG      29.85R
TOLUCA         TSTM      59  50  72 W10       30.34R

SOUTHERN MEXICO

CITY           SKY/WX    TMP DP  RH WIND       PRES   REMARKS
ACAPULCO       PTCLDY    82  77  83 W6        29.82R HX  91
B. DE HUATULCO   N/A    N/A N/A N/A MISG        N/A
OAXACA         MOCLDY    81  50  34 S16       30.08R
P. ESCONDIDO     N/A    N/A N/A N/A MISG        N/A
VERACRUZ       PTCLDY    79  73  83 E7        29.81
ZIHUATANEJO    PTCLDY    84  75  74 W8        29.82R HX  92

YUCATAN PENINSULA

CITY           SKY/WX    TMP DP  RH WIND       PRES   REMARKS
CAMPECHE       PTCLDY    82  75  78 NW20      29.83R
CANCUN         PTCLDY    81  73  78 E8        29.98R
CHETUMAL       PTCLDY    81  73  78 SE12      29.94R
CD. DEL CARMEN CLEAR     82  75  78 E8        29.84R
COZUMEL        PTCLDY    81  75  83 N6        29.97R
MERIDA         MOCLDY    84  70  61 NE14      29.89R
MINATITLAN     CLEAR     81  68  65 CALM      29.79R
TAPACHULA      PTCLDY    86  73  66 CALM      29.81R HX  93
TUX. GUTIERREZ MOCLDY    86  70  58 NW15        N/A  HX  90
VILLAHERMOSA   CLEAR     84  68  58 NE6       29.83R

CENTRAL AMERICA

CITY           SKY/WX    TMP DP  RH WIND       PRES   REMARKS
BELIZE CITY    PTCLDY    81  75  83 E7        29.93R
MANAGUA        PTCLDY    84  75  74 E7        29.83R HX  92

CARIBBEAN

CITY           SKY/WX    TMP DP  RH WIND       PRES   REMARKS
ARUBA          PTCLDY    81  75  83 E16       29.89R
CURACAO          N/A     81  73  78 E14       29.92R
KINGSTON       PTCLDY    82  73  74 SE13      29.94R
NASSAU         MOCLDY    77  73  88 NE9       30.10R
SAN JUAN       PTCLDY    79  72  78 E8        30.04R
SANTO DOMINGO  PTCLDY    73  70  88 N5        30.00R
ST. CROIX      CLEAR     79  70  73 NE10      30.04R
ST. KITTS      PTCLDY    77  70  78 NE15      30.03R
ST. MAARTEN    PTCLDY    79  68  69 E13       30.03S
ST. THOMAS     CLEAR     79  72  78 E10       30.04R

$$





USA.gov is the U.S. government's official web portal to all federal, state and local government web resources and services.